Location: Monteux
(44.0348°N, 4.9972°E)
Time: 16:09:45
(UTC+00:00)

Cosmos 158 Rocket - Pass Details

Date: 30 November 2020
Orbit: 698 x 793 km, 74.0° (Epoch: 17 January)

Event Time Altitude Azimuth Distance (km) Brightness Sun altitude
Rises 17:55:14 0° 185° (S) 3,131 7.4 -19.5°
Reaches altitude 10° 17:57:38 10° 181° (S) 2,201 6.5 -20.0°
Maximum altitude 18:02:26 53° 106° (ESE) 876 3.9 -20.8°
Enters shadow 18:03:05 49° 77° (ENE) 916 3.9 -20.9°
